Probability
22 22 22 21 21 20 16 10 6 5 6 9 11 11 10 10 11 14 14 14 14 12 10 8 7 5 3 1 0 0 0 0 0 0 0 0 1 1 0 0 1 1 1
25 25 23 21 20 20 16 12 11 9 10 12 13 11 10 10 12 15 15 15 15 14 13 11 11 9 6 4 3 1 1 0 0 0 0 0 1 1 0 0 1 2 2
30 29 26 23 21 20 18 16 16 16 16 17 16 14 12 11 13 14 14 14 15 15 15 15 16 15 13 11 9 6 4 2 1 1 0 0 1 1 0 0 1 1 1
33 31 28 24 22 21 20 19 18 19 20 20 18 17 15 13 14 14 13 12 12 14 15 15 17 18 18 17 16 12 9 6 4 3 1 1 0 0 0 0 0 0 0
34 32 29 26 24 24 23 21 19 21 21 20 18 18 16 14 14 14 13 11 11 12 14 15 16 18 18 19 19 17 14 10 8 6 4 3 2 1 1 0 0 0 0
35 32 29 28 29 28 26 23 22 22 23 21 19 18 17 14 13 13 12 12 12 13 14 16 16 18 18 18 18 16 14 11 10 9 8 6 5 3 2 0 0 1 1
35 32 30 32 33 33 29 25 24 24 24 22 18 17 16 14 13 11 11 12 13 14 15 16 16 17 18 18 16 11 9 10 9 9 9 9 8 6 4 2 1 2 2
35 33 33 33 34 33 30 27 25 25 25 22 17 16 14 12 12 11 10 12 13 13 14 14 14 15 16 15 13 10 9 10 9 7 8 9 8 6 6 4 3 3 3
32 33 32 31 31 29 27 24 23 24 24 21 18 15 12 10 9 8 7 10 13 13 13 13 13 12 12 11 10 10 12 13 12 9 7 6 4 4 4 4 4 4 4
29 30 30 29 29 27 22 19 19 20 21 20 18 15 12 9 6 4 5 9 13 13 13 14 13 10 8 6 7 10 12 14 15 12 8 4 2 1 2 3 3 4 4
29 29 28 27 27 25 20 16 15 16 18 18 16 13 12 10 6 3 4 8 12 13 13 14 13 9 5 3 4 7 9 11 13 13 10 6 2 2 2 2 2 3 4
28 26 24 23 23 22 18 14 14 15 17 17 15 13 12 11 8 5 3 5 8 10 12 13 12 9 4 1 1 3 5 7 10 12 11 7 4 2 3 2 2 3 3
24 22 19 18 18 18 16 14 13 14 15 17 16 14 13 12 11 8 5 3 4 5 7 9 8 6 4 3 2 2 3 5 8 11 11 7 3 2 2 2 2 2 2
20 18 16 16 16 16 16 14 13 13 14 16 17 16 14 13 11 10 9 7 5 3 4 4 4 5 5 5 4 3 3 5 8 10 10 6 2 1 1 1 0 1 1
18 16 15 15 15 15 13 11 10 10 10 12 13 12 12 11 9 8 9 9 7 5 4 4 5 6 7 7 7 7 6 6 8 9 8 6 3 2 2 1 0 0 1
18 17 16 15 14 11 8 6 5 4 4 5 6 6 7 7 5 4 4 6 5 4 4 5 7 8 9 10 11 10 8 8 8 9 8 7 5 3 2 1 0 0 0
17 16 15 14 11 8 6 4 2 1 0 0 1 1 3 3 2 1 1 2 2 3 4 6 7 8 9 11 11 10 9 9 9 9 9 7 5 3 2 1 1 0 0
17 15 12 10 7 6 4 3 1 0 0 0 1 1 1 1 0 0 0 1 2 3 3 5 6 7 8 10 10 10 10 10 9 9 7 5 4 3 3 2 2 1 0
16 14 10 6 4 4 2 1 1 0 0 0 1 1 0 0 0 0 0 2 3 3 2 3 4 6 7 8 8 8 9 8 7 6 4 3 3 3 3 3 2 1 1
14 11 7 5 3 3 2 1 0 0 0 0 1 1 0 0 0 0 0 1 3 3 3 3 3 5 6 6 5 5 6 5 3 2 1 2 3 3 3 3 3 3 2
9 8 6 4 3 3 2 1 0 0 0 0 0 1 1 1 1 1 0 1 3 3 3 2 2 2 3 4 3 3 4 3 1 0 0 2 3 3 3 3 3 3 3
7 7 6 4 3 3 2 1 0 0 0 0 0 0 1 1 2 1 0 2 3 2 1 1 1 0 1 2 3 3 2 1 0 1 1 2 3 3 3 3 3 3 3
6 6 5 4 3 1 1 0 0 0 0 0 0 0 0 1 1 0 0 1 2 1 0 0 0 0 0 1 2 2 1 0 0 1 2 3 3 3 3 3 3 3 3
5 4 4 3 3 1 1 0 0 0 0 0 0 0 0 0 0 0 0 0 0 0 0 0 0 0 0 1 1 1 0 0 0 1 2 3 3 3 3 3 3 3 3
4 3 3 3 2 2 1 0 0 0 0 0 0 0 0 0 0 0 1 0 0 0 0 0 0 0 0 0 0 0 0 0 0 0 1 2 3 3 3 3 3 3 3
3 3 3 2 1 1 1 0 0 0 0 0 0 0 0 0 0 0 1 0 0 0 0 0 0 0 0 0 0 0 0 0 0 0 0 1 3 3 3 3 3 3 3
Wind_Speed
9 8 7 6 5 5 4 4 4 4 4 3 3 3 3 3 2 2 2 2 2 1 1 1 2 1 1 1 1 1 1 2 2 2 1 1 1 2 2 2 2 2 3
9 7 7 6 5 5 5 5 4 4 4 4 3 3 3 3 3 3 3 2 2 2 2 1 2 1 1 1 1 1 1 2 2 2 1 1 2 2 2 2 2 3 3
8 7 6 6 6 6 6 5 4 4 4 4 4 4 4 4 3 3 3 3 3 2 2 3 3 2 2 2 2 2 1 1 1 2 2 1 1 1 1 1 2 1 3
7 7 7 6 6 5 5 5 4 4 4 4 4 4 4 3 3 3 3 3 2 2 3 3 3 3 3 3 2 2 2 1 1 1 1 1 1 1 1 1 1 2 2
8 7 7 6 5 5 4 4 4 4 5 4 4 4 3 3 3 3 3 3 3 3 2 2 3 3 3 3 2 3 2 2 2 2 2 1 1 1 2 2 2 2 2
8 7 6 6 5 5 4 4 4 3 3 3 4 4 3 3 3 4 4 3 3 3 3 2 2 2 2 3 4 4 4 4 4 3 2 3 3 3 2 2 1 0 2
7 6 5 5 5 5 5 4 4 4 4 3 3 3 3 3 4 4 4 4 3 3 3 3 2 1 2 2 3 3 3 5 6 5 5 5 4 4 3 3 3 3 3
6 6 5 5 5 4 4 4 4 3 3 3 3 3 3 2 2 3 4 3 3 2 3 3 2 2 2 2 1 2 2 3 5 4 5 5 5 5 5 5 4 3 2
6 5 5 5 5 4 4 4 3 3 3 3 3 3 3 1 2 2 3 2 1 2 2 2 3 3 3 2 1 2 3 4 4 5 6 5 5 5 4 2 1 1 2
5 5 4 4 5 5 5 3 2 3 3 3 2 2 3 2 2 2 3 2 2 1 1 1 2 2 2 1 2 2 4 4 3 3 3 3 3 4 4 4 4 3 2
4 4 3 4 4 5 4 3 3 3 3 3 2 1 2 2 2 3 3 2 3 2 2 2 2 3 3 3 3 3 5 4 2 2 2 2 2 2 2 3 4 4 4
4 4 3 3 4 3 4 3 3 4 4 3 2 1 1 1 2 2 3 3 3 2 3 2 3 3 3 3 2 3 4 2 1 0 1 2 2 3 3 3 3 4 4
4 4 3 3 3 3 4 4 3 3 3 3 3 2 2 1 1 2 2 2 2 2 2 3 2 2 2 1 2 3 2 0 0 1 2 3 3 3 2 1 2 2 3
4 3 3 3 2 2 2 3 3 3 3 3 3 3 2 1 1 1 1 1 1 1 1 1 1 1 1 1 2 1 1 1 2 2 2 2 2 1 1 1 2 2 2
3 3 3 3 3 3 2 1 2 3 4 4 4 4 4 3 3 3 2 1 2 2 1 1 1 1 1 1 2 1 1 1 1 1 1 2 2 1 2 2 1 1 2
3 3 2 2 2 2 3 1 3 1 2 3 4 4 3 3 3 3 2 1 2 4 3 1 1 1 1 2 2 1 1 1 1 1 1 1 2 2 2 1 1 2 3
4 3 2 2 2 3 3 3 1 2 1 1 2 4 4 4 3 3 2 2 3 5 2 1 1 1 1 1 1 1 1 1 1 1 1 1 2 2 2 2 2 2 2
3 3 3 3 3 3 3 3 3 2 1 1 1 2 4 4 4 3 3 4 1 1 1 1 1 1 1 1 1 1 1 1 1 1 1 2 2 2 2 2 2 2 3
2 2 2 2 2 3 3 3 2 3 2 1 0 1 1 2 2 2 3 2 2 2 2 1 1 1 1 1 1 1 1 1 1 1 1 2 2 1 2 2 2 3 2
1 2 3 2 2 2 2 3 2 2 3 2 1 1 1 2 2 1 1 1 1 2 2 1 1 1 1 1 1 1 1 1 1 1 1 1 1 1 2 2 2 2 2
1 1 2 2 2 2 2 3 3 2 3 2 2 2 5 3 3 3 2 2 2 1 1 1 1 1 1 1 1 0 0 1 1 1 1 1 1 1 2 2 2 2 2
2 1 1 2 2 2 2 2 2 2 3 3 2 2 4 2 2 2 2 1 1 1 1 2 1 1 2 2 1 1 1 1 1 1 0 1 1 1 2 2 2 2 2
1 1 1 1 1 2 2 2 2 3 2 2 3 3 2 2 2 2 1 1 1 0 0 0 0 1 1 0 1 1 1 1 1 1 1 1 1 1 1 2 3 3 3
2 2 2 1 1 1 2 2 2 2 3 3 3 3 2 2 2 2 1 1 1 1 1 0 1 1 2 2 1 1 1 0 0 1 1 1 1 2 2 2 3 3 3
3 3 2 2 2 2 2 2 2 2 3 3 3 3 2 2 1 1 1 1 2 1 1 1 1 1 2 2 2 1 1 1 1 1 1 1 1 2 2 3 3 3 3
3 3 3 2 2 2 2 2 2 3 3 3 3 3 2 2 2 2 1 2 2 1 1 1 1 1 2 1 1 1 1 1 1 1 1 1 1 2 2 2 3 3 3
Wind_Direction
185 187 186 183 184 182 185 198 199 198 192 187 184 181 181 182 182 176 190 180 192 232 228 207 245 246 243 255 218 198 194 175 221 266 260 255 210 216 199 215 223 221 233
183 181 183 180 178 184 197 203 196 195 195 188 182 182 188 191 187 184 201 204 196 216 225 211 254 243 238 237 213 223 219 196 194 242 268 259 236 213 198 212 222 223 232
170 173 178 183 187 194 202 203 193 192 193 187 181 187 195 197 192 193 194 205 205 209 205 204 225 212 228 227 208 218 232 225 191 197 242 253 270 224 192 249 251 260 248
167 172 179 186 191 195 198 194 192 193 192 194 193 199 198 194 194 197 196 200 206 215 214 215 222 213 221 225 224 223 210 198 192 190 224 250 265 256 148 243 284 283 270
164 172 183 186 183 178 177 180 182 186 191 190 192 199 196 194 206 201 202 205 206 219 232 230 232 227 229 228 231 220 204 202 197 197 222 222 241 201 221 225 235 273 281
168 179 182 179 178 177 180 180 177 185 187 182 191 195 195 208 208 198 193 202 198 206 226 238 239 250 255 253 245 227 206 202 208 207 217 217 231 222 218 206 199 213 282
167 172 175 176 177 180 180 173 178 187 184 186 195 188 195 208 202 198 194 189 199 213 218 224 239 253 246 254 261 255 243 231 217 204 213 225 221 216 201 206 208 209 232
166 170 169 171 178 179 174 180 186 183 181 184 187 183 185 212 197 194 189 190 199 209 212 208 211 241 249 242 248 268 270 261 242 222 221 233 226 216 202 202 209 224 263
165 172 173 173 172 172 178 184 181 169 167 167 167 165 165 199 184 174 174 181 202 229 223 206 213 231 256 248 239 267 283 285 265 242 240 241 242 230 204 171 180 182 264
178 177 172 172 173 177 181 178 173 166 170 160 159 172 172 187 186 169 173 168 184 235 255 237 220 229 256 244 233 247 267 276 287 283 269 267 255 247 223 197 192 195 215
173 160 162 179 179 179 177 170 162 159 154 153 160 185 175 186 185 170 164 167 184 202 224 239 245 231 242 250 239 240 252 262 269 263 259 264 271 259 243 224 204 193 201
155 158 172 183 184 172 164 167 162 156 157 165 161 173 229 218 205 197 172 179 183 193 234 247 248 239 236 246 251 272 279 282 283 268 270 263 256 255 249 236 229 227 222
149 159 170 178 179 165 160 165 166 165 172 180 177 190 222 243 243 223 199 187 195 207 247 258 253 227 225 254 292 301 315 320 221 239 252 257 251 250 253 254 261 258 261
150 157 158 156 154 148 147 158 165 173 181 187 187 197 212 225 243 271 260 214 207 219 252 262 247 251 263 293 314 316 274 222 207 229 251 270 279 265 244 238 251 259 281
155 159 155 156 156 148 138 158 178 192 189 189 199 195 191 214 236 212 194 205 195 197 143 51 17 353 342 329 326 320 307 313 272 282 279 292 296 282 272 250 231 235 250
158 159 162 160 157 154 142 86 32 104 165 170 183 186 203 204 191 181 193 187 150 140 122 136 227 257 264 277 285 301 300 278 270 260 272 288 290 287 283 279 250 237 253
170 173 170 165 164 166 163 157 149 3 33 159 178 181 189 185 176 174 175 153 135 132 124 179 227 248 271 286 280 265 265 274 284 276 268 273 277 281 275 266 268 271 269
167 173 170 172 170 171 173 174 174 173 181 320 301 197 192 183 175 169 154 126 110 136 175 197 225 242 239 241 249 258 264 286 298 279 273 278 277 271 274 271 262 262 268
164 167 169 175 174 175 174 170 174 175 169 193 315 341 172 153 140 144 142 148 175 190 206 210 225 233 236 236 235 235 235 248 274 269 276 288 289 287 280 276 268 269 257
171 169 163 168 173 170 169 166 173 178 170 176 196 201 161 130 138 161 176 186 182 190 196 210 227 219 219 236 244 238 246 277 296 306 310 311 306 296 289 292 292 283 268
139 139 153 164 177 176 172 174 180 181 182 190 205 187 167 165 174 180 179 187 194 199 202 211 231 228 222 230 213 194 198 263 272 270 299 309 312 311 307 306 305 302 300
125 142 177 181 174 170 171 173 170 169 171 174 167 150 164 152 162 171 174 188 200 196 196 191 214 234 223 218 202 184 186 225 275 270 282 305 305 300 301 308 309 303 298
121 127 139 137 139 147 149 150 154 153 155 158 151 145 147 148 152 157 158 160 165 187 236 202 194 304 330 17 122 147 155 214 260 248 218 280 297 295 297 297 297 297 292
93 98 103 100 106 120 124 125 127 131 133 132 127 123 125 128 137 140 138 139 129 96 72 73 103 92 63 63 62 75 85 50 322 291 242 244 276 283 285 287 289 286 286
83 80 78 82 89 100 106 110 112 117 119 121 120 117 117 116 112 110 112 116 110 90 73 72 82 93 105 103 95 89 87 64 14 333 294 244 262 278 285 287 284 287 285
76 72 72 75 84 92 101 103 108 111 108 105 107 110 108 103 98 93 91 88 90 87 72 69 69 85 98 99 105 118 112 53 6 334 304 270 282 289 293 288 291 290 289